Location: Brno
(49.2000°N, 16.6330°E)
Time: 02:03:40
(UTC+02:00)

N. Korean satellite - Visible Passes

Search period start: 21 September 2020 00:00
Search period end: 01 October 2020 00:00
Orbit: 455 x 503 km, 97.2° (Epoch: 20 September)

Date Brightness Start Highest point End Pass type
(mag) Time Alt. Az. Time Alt. Az. Time Alt. Az.
21 Sep 9.0 05:56:42 10° NNE 05:59:59 29° E 06:03:12 10° SSE visible
22 Sep 9.8 05:31:28 10° NE 05:33:46 16° E 05:36:04 10° SE visible
24 Sep 8.1 06:11:50 10° NNE 06:15:23 43° E 06:18:50 10° S visible
25 Sep 9.4 05:46:16 10° NE 05:49:14 23° E 05:52:07 10° SSE visible
26 Sep 10.1 05:21:27 10° ENE 05:22:58 12° E 05:24:27 10° ESE visible
28 Sep 8.7 06:01:17 10° NNE 06:04:37 33° E 06:07:52 10° SSE visible
29 Sep 9.8 05:35:54 10° NE 05:38:24 17° E 05:40:52 10° SE visible
